Sary-Tash

Kyrgyzstan     39˚43′29″N   73˚15′09″E
temp.,
°C
wind,
m/s
gust,
m/s
humid.,
%
clouds,
%
prec.,
mm/h
press.,
hPa
HPBL,
m
3 december, thu
thu300:00−11˚sw1186100 0.3 102921
03:00−11˚sw2294100 0.1 102922
06:00−12˚wsw1194100 0.2 103021
09:00−12˚sw1292100 0.1 103122
12:00−9˚sw238891 0.1 1028133
15:00−9˚sse228663 0.0 102591
18:00−12˚ssw118582 0.0 102721
21:00−11˚wsw1280100 0.0 102621
4 december, fri
fri400:00−11˚ssw1187100 0.0 102521
03:00−12˚sw1188100 0.1 102421
06:00−11˚se1196100 0.9 102324
09:00−10˚n1196100 1.4 102553
12:00−8˚ne0190100 2.2 1023207
15:00−7˚ene1292100 0.6 1020234
18:00−9˚ene1196100 3.1 102348
21:00−11˚nne2296100 1.3 102534
5 december, sat
sat500:00−15˚ne119697 1.6 102620
03:00−18˚wsw119479 0.0 102820
06:00−18˚sw129377 0.1 102920
09:00−18˚ssw1196100 0.1 103221
12:00−14˚ssw129499 0.1 1028108
15:00−14˚s229376 0.0 102690
18:00−20˚sw119347 0.0 103020
21:00−20˚sw229019 0.0 103221
6 december, sun
sun600:00−20˚sw339055 0.0 103322
03:00−20˚sw3389100 0.0 103323
06:00−21˚sw3383100 0.0 103422
09:00−21˚sw337444 0.0 103622
12:00−16˚sw337222 0.0 103292
15:00−15˚sw237523 0.0 102974
18:00−19˚sw236551 0.0 103121
21:00−18˚sw336695 0.0 103222
7 december, mon
mon700:00−17˚sw336897 0.0 103024
03:00−16˚sw3366100 0.0 102824
06:00−17˚sw2366100 0.0 102623
09:00−16˚sw2262100 0.0 102721
12:00−12˚sw1269100 0.0 102488
15:00−11˚s1281100 0.0 1021100
18:00−15˚nw0094100 0.1 102420
21:00−14˚nne2295100 0.4 102621